{"data":{"norad_id":58546,"epoch":"2026-05-25T04:25:49.101312Z","epoch_age_seconds":52419,"freshness":"FRESH","line1":"1 58546U 23192R   26145.18459608  .00000042  00000+0  12389-4 0  9996","line2":"2 58546  53.1612  66.9624 0001239  83.6098 276.5046 15.34386596137708","mean_motion":15.34386596,"eccentricity":0.0001239,"inclination_deg":53.1612,"raan_deg":66.9624,"arg_perigee_deg":83.6098,"mean_anomaly_deg":276.5046,"bstar":1.2389e-5,"rev_number":13770,"period_min":93.848577910804,"perigee_km":461.89549496798,"apogee_km":463.59066505181,"semimajor_km":6840.8800800099,"source":"CELESTRAK","updated_at":"2026-05-25T13:38:18.663519Z"}}